"2002/01/01",  1.9,  3.1,  0.8
"2002/01/02",  2.2,  3.4,  1.2
"2002/01/03",  1.4,  2.4,  0.5
"2002/01/04",  1.4,  3.0,  0.2
"2002/01/05",  1.4,  2.3,  0.5
"2002/01/06",  1.4,  2.9,  0.3
"2002/01/07",  0.9,  1.8,  0.0
"2002/01/08",  2.4,  4.2,  1.0
"2002/01/09",  1.9,  3.1,  0.8
"2002/01/10",  2.2,  3.9,  0.8
"2002/01/11",  2.7,  4.4,  1.3
"2002/01/12",  3.1,  4.7,  1.6
"2002/01/13",  3.1,  4.5,  1.8
"2002/01/14",  3.0,  4.6,  1.3
"2002/01/15",  4.5,  5.8,  3.2
"2002/01/16",  5.3,  5.8,  4.6
"2002/01/17",  4.9,  5.4,  4.0
"2002/01/18",  4.2,  5.8,  3.0
"2002/01/19",  3.2,  4.9,  1.7
"2002/01/20",  3.7,  5.6,  2.4
"2002/01/21",  5.5,  8.4,  4.0
"2002/01/22",  6.6,  7.5,  5.6
"2002/01/23",  4.6,  6.0,  3.2
"2002/01/24",  3.7,  5.5,  2.2
"2002/01/25",  3.2,  4.9,  1.7
"2002/01/26",  2.9,  3.9,  1.7
"2002/01/27",  5.5,  6.7,  3.7
"2002/01/28",  4.3,  5.6,  3.2
"2002/01/29",  3.5,  5.1,  2.1
"2002/01/30",  3.0,  4.9,  1.5
"2002/01/31",  2.9,  4.5,  1.5
"2002/02/01",  3.0,  5.1,  1.4
"2002/02/02",  3.2,  5.0,  1.5
"2002/02/03",  3.5,  4.0,  3.2
"2002/02/04",  4.2,  6.0,  3.2
"2002/02/05",  3.9,  4.9,  2.6
"2002/02/06",  5.5,  7.7,  4.1
"2002/02/07",  4.8,  6.0,  3.6
"2002/02/08",  4.5,  6.4,  2.8
"2002/02/09",  4.9,  6.4,  3.6
"2002/02/10",  3.4,  4.4,  2.1
"2002/02/11",  2.7,  4.6,  1.1
"2002/02/12",  2.9,  4.6,  1.4
"2002/02/13",  3.2,  5.3,  1.6
"2002/02/14",  3.9,  5.9,  2.0
"2002/02/15",  3.6,  5.6,  1.7
"2002/02/16",  3.8,  6.1,  1.7
"2002/02/17",  4.5,  5.7,  3.2
"2002/02/18",  5.2,  6.9,  3.8
"2002/02/19",  3.7,  5.0,  2.3
"2002/02/20",  4.1,  6.6,  2.0
"2002/02/21",  5.1,  7.5,  2.7
"2002/02/22",  6.4,  7.8,  5.1
"2002/02/23",  6.9,  9.0,  5.0
"2002/02/24",  7.5,  9.5,  6.1
"2002/02/25",  7.1,  9.3,  5.3
"2002/02/26",  7.2,  8.6,  6.0
"2002/02/27",  7.6,  9.2,  6.1
"2002/02/28",  7.5,  7.9,  7.1
"2002/03/01",  8.7, 11.2,  7.0
"2002/03/02",  9.2, 10.6,  8.1
"2002/03/03",  8.0,  9.2,  7.0
"2002/03/04",  8.0, 10.6,  6.1
"2002/03/05",  7.7,  9.1,  6.3
"2002/03/06",  8.2,  8.8,  7.8
"2002/03/07",  7.9,  9.5,  6.2
"2002/03/08",  7.5, 10.0,  5.3
"2002/03/09",  7.7, 10.0,  5.4
"2002/03/10",  8.5, 11.3,  5.9
"2002/03/11", 10.0, 12.1,  8.3
"2002/03/12", 10.0, 12.3,  7.9
"2002/03/13", 10.1, 12.7,  7.8
"2002/03/14", 10.1, 12.2,  8.0
"2002/03/15", 11.4, 12.9, 10.5
"2002/03/16", 10.5, 11.7,  9.5
"2002/03/17", 10.2, 12.3,  8.3
"2002/03/18", 11.0, 13.0,  8.8
"2002/03/19", 10.9, 12.9,  8.8
"2002/03/20", 11.4, 13.7,  9.4
"2002/03/21", 11.0, 12.4,  9.1
"2002/03/22", 11.9, 12.7, 11.1
"2002/03/23",  9.7, 11.2,  8.0
"2002/03/24",  8.3, 10.5,  6.5
"2002/03/25",  9.0, 11.4,  6.9
"2002/03/26",  8.8,  9.5,  8.1
"2002/03/27",  8.9,  9.1,  8.5
"2002/03/28",  9.1, 11.9,  6.6
"2002/03/29",  9.2,  9.9,  8.7
"2002/03/30", 12.1, 14.8,  9.8
"2002/03/31", 12.7, 14.5, 11.4
"2002/04/01", 12.5, 15.2, 10.1
"2002/04/02", 13.5, 16.4, 11.0
"2002/04/03", 14.5, 16.9, 12.3
"2002/04/04", 14.1, 15.5, 12.8
"2002/04/05", 12.8, 15.0, 10.8
"2002/04/06", 12.4, 14.3, 10.4
"2002/04/07", 12.6, 13.9, 11.4
"2002/04/08", 14.3, 16.3, 13.0
"2002/04/09", 13.6, 14.7, 12.1
"2002/04/10", 11.7, 12.1, 11.0
"2002/04/11", 11.6, 13.1, 10.4
"2002/04/12", 11.7, 12.3, 11.2
"2002/04/13"," * "," * "," * "
"2002/04/14"," * "," * "," * "
"2002/04/15"," * "," * "," * "
"2002/04/16", 15.5, 16.9, 14.3
"2002/04/17", 16.2, 17.2, 15.3
"2002/04/18", 15.8, 17.1, 14.6
"2002/04/19", 15.6, 17.5, 14.0
"2002/04/20", 15.6, 17.2, 14.1
"2002/04/21", 14.8, 15.6, 14.2
"2002/04/22", 14.4, 15.6, 13.5
"2002/04/23", 14.7, 16.5, 13.3
"2002/04/24", 15.8, 18.3, 13.7
"2002/04/25", 15.1, 16.4, 13.7
"2002/04/26", 13.0, 13.7, 12.3
"2002/04/27", 12.6, 14.4, 11.0
"2002/04/28", 13.3, 15.6, 11.3
"2002/04/29", 14.2, 17.0, 11.6
"2002/04/30", 14.7, 15.1, 14.2
"2002/05/01", 15.2, 16.2, 14.2
"2002/05/02", 15.4, 17.9, 13.4
"2002/05/03", 15.8, 18.3, 13.3
"2002/05/04", 16.9, 18.8, 15.2
"2002/05/05", 18.7, 21.1, 16.7
"2002/05/06", 18.2, 19.3, 17.3
"2002/05/07", 16.3, 17.4, 15.7
"2002/05/08", 16.0, 17.1, 15.1
"2002/05/09", 15.0, 15.8, 14.3
"2002/05/10", 14.0, 14.4, 13.5
"2002/05/11", 13.9, 15.2, 13.0
"2002/05/12", 14.8, 16.4, 13.7
"2002/05/13", 14.3, 15.0, 13.8
"2002/05/14", 15.9, 18.7, 13.7
"2002/05/15", 17.2, 19.0, 15.6
"2002/05/16", 16.2, 17.3, 15.2
"2002/05/17", 15.3, 16.0, 14.2
"2002/05/18", 14.2, 14.9, 13.5
"2002/05/19", 16.0, 18.2, 13.9
"2002/05/20", 15.8, 16.9, 15.0
"2002/05/21", 16.5, 19.2, 14.2
"2002/05/22", 17.5, 19.5, 15.8
"2002/05/23", 18.3, 20.4, 16.6
"2002/05/24", 19.1, 21.3, 17.4
"2002/05/25", 19.0, 21.3, 16.8
"2002/05/26", 19.3, 21.2, 17.4
"2002/05/27", 18.9, 20.9, 17.8
"2002/05/28", 18.9, 21.6, 16.6
"2002/05/29", 19.1, 21.5, 17.1
"2002/05/30", 19.8, 21.8, 17.7
"2002/05/31", 19.8, 20.9, 18.8
"2002/06/01", 20.6, 23.0, 18.6
"2002/06/02", 21.6, 24.0, 19.5
"2002/06/03", 21.6, 23.7, 19.8
"2002/06/04", 22.1, 24.5, 20.0
"2002/06/05", 22.6, 24.7, 20.8
"2002/06/06", 22.0, 24.3, 20.0
"2002/06/07", 22.3, 25.0, 19.8
"2002/06/08", 23.0, 25.0, 21.1
"2002/06/09", 23.5, 26.0, 21.6
"2002/06/10", 22.7, 24.3, 21.1
"2002/06/11", 22.8, 24.2, 21.6
"2002/06/12", 21.2, 23.3, 19.3
"2002/06/13", 18.7, 19.3, 18.3
"2002/06/14", 18.8, 19.7, 18.0
"2002/06/15", 18.4, 19.2, 17.8
"2002/06/16", 19.0, 19.8, 18.3
"2002/06/17", 19.6, 21.3, 18.0
"2002/06/18", 18.8, 20.0, 17.6
"2002/06/19", 19.7, 23.0, 16.8
"2002/06/20", 20.1, 21.1, 19.2
"2002/06/21", 21.0, 23.6, 19.0
"2002/06/22", 20.0, 21.1, 19.0
"2002/06/23", 18.3, 19.1, 17.6
"2002/06/24", 19.1, 21.6, 17.1
"2002/06/25", 18.4, 19.5, 17.5
"2002/06/26", 17.4, 18.0, 16.9
"2002/06/27", 16.8, 17.2, 16.2
"2002/06/28", 18.2, 21.1, 15.9
"2002/06/29", 19.3, 20.7, 18.1
"2002/06/30", 19.5, 20.5, 18.5
"2002/07/01", 19.4, 19.7, 18.9
"2002/07/02", 19.7, 20.7, 18.9
"2002/07/03", 19.9, 20.6, 19.1
"2002/07/04", 21.7, 24.3, 19.6
"2002/07/05", 22.3, 23.5, 21.2
"2002/07/06", 22.7, 23.7, 21.7
"2002/07/07", 23.1, 24.5, 21.9
"2002/07/08", 24.4, 26.6, 22.6
"2002/07/09", 25.1, 26.9, 23.9
"2002/07/10", 23.8, 24.6, 23.3
"2002/07/11", 24.2, 26.4, 22.6
"2002/07/12", 25.0, 26.8, 23.4
"2002/07/13", 24.5, 25.5, 23.6
"2002/07/14", 24.7, 25.9, 23.6
"2002/07/15", 25.1, 26.3, 24.0
"2002/07/16", 24.2, 25.0, 23.4
"2002/07/17", 23.9, 24.7, 23.0
"2002/07/18", 24.7, 26.4, 23.4
"2002/07/19", 25.1, 26.2, 24.3
"2002/07/20", 25.6, 27.5, 24.0
"2002/07/21", 26.4, 28.3, 24.7
"2002/07/22", 26.8, 28.2, 25.7
"2002/07/23", 27.0, 28.6, 25.7
"2002/07/24", 26.5, 27.7, 25.4
"2002/07/25", 25.3, 26.0, 25.0
"2002/07/26", 25.9, 27.7, 24.5
"2002/07/27", 26.8, 28.6, 25.2
"2002/07/28", 25.6, 26.9, 24.7
"2002/07/29", 24.9, 26.1, 24.0
"2002/07/30", 25.7, 27.3, 24.4
"2002/07/31", 26.8, 28.9, 25.1
"2002/08/01", 27.7, 29.9, 25.8
"2002/08/02", 26.2, 27.8, 24.9
"2002/08/03", 26.2, 27.6, 25.0
"2002/08/04", 26.1, 27.4, 25.0
"2002/08/05", 26.9, 28.6, 25.5
"2002/08/06", 27.5, 29.1, 26.0
"2002/08/07", 27.7, 29.2, 26.4
"2002/08/08", 27.5, 28.9, 26.5
"2002/08/09", 27.4, 28.6, 26.2
"2002/08/10", 27.5, 28.8, 26.4
"2002/08/11", 27.7, 29.4, 26.4
"2002/08/12", 26.5, 27.8, 25.7
"2002/08/13", 26.5, 28.2, 25.2
"2002/08/14", 27.2, 29.0, 25.7
"2002/08/15", 27.6, 29.2, 26.2
"2002/08/16", 26.4, 28.0, 24.9
"2002/08/17", 24.9, 25.9, 24.1
"2002/08/18", 23.9, 24.8, 23.4
"2002/08/19", 23.7, 24.4, 22.9
"2002/08/20", 24.8, 26.6, 23.5
"2002/08/21", 24.1, 25.8, 22.5
"2002/08/22", 24.2, 25.6, 22.9
"2002/08/23", 23.4, 24.1, 22.1
"2002/08/24", 23.3, 25.0, 22.0
"2002/08/25", 24.7, 26.4, 23.3
"2002/08/26", 24.6, 25.5, 23.9
"2002/08/27", 25.1, 26.9, 23.7
"2002/08/28", 26.2, 27.7, 24.9
"2002/08/29", 26.5, 28.2, 25.1
"2002/08/30", 26.8, 28.5, 25.3
"2002/08/31", 27.0, 28.5, 25.6
"2002/09/01", 27.0, 28.4, 25.7
"2002/09/02", 27.1, 28.4, 25.8
"2002/09/03", 27.2, 28.9, 25.7
"2002/09/04", 27.5, 29.1, 26.1
"2002/09/05", 26.8, 27.5, 25.8
"2002/09/06", 24.3, 25.8, 23.4
"2002/09/07", 23.2, 23.5, 22.9
"2002/09/08", 22.8, 23.4, 22.4
"2002/09/09", 22.7, 23.3, 22.3
"2002/09/10", 22.8, 23.8, 21.8
"2002/09/11", 23.9, 25.7, 22.3
"2002/09/12", 24.6, 26.2, 23.3
"2002/09/13", 23.5, 24.7, 22.6
"2002/09/14", 21.3, 22.6, 20.6
"2002/09/15", 20.3, 20.6, 20.0
"2002/09/16", 19.9, 20.1, 19.6
"2002/09/17", 19.8, 20.3, 19.4
"2002/09/18", 21.0, 22.9, 19.4
"2002/09/19", 20.8, 22.3, 19.6
"2002/09/20", 20.9, 22.7, 19.3
"2002/09/21", 20.6, 21.6, 19.4
"2002/09/22", 20.1, 20.7, 19.3
"2002/09/23", 19.4, 20.5, 18.5
"2002/09/24", 19.8, 21.4, 18.4
"2002/09/25", 19.5, 21.1, 17.9
"2002/09/26", 19.4, 20.5, 18.4
"2002/09/27", 18.7, 19.2, 18.4
"2002/09/28", 18.4, 18.7, 18.0
"2002/09/29", 19.9, 21.5, 18.4
"2002/09/30", 19.7, 20.5, 19.0
"2002/10/01"," * "," * "," * "
"2002/10/02"," * "," * "," * "
"2002/10/03", 20.4, 21.8, 19.3
"2002/10/04", 20.5, 22.0, 19.2
"2002/10/05", 20.7, 21.8, 19.7
"2002/10/06", 20.3, 21.2, 19.3
"2002/10/07", 20.7, 21.6, 20.1
"2002/10/08", 19.8, 20.4, 19.3
"2002/10/09", 18.7, 19.3, 18.1
"2002/10/10", 18.3, 19.6, 17.2
"2002/10/11", 17.4, 18.4, 16.4
"2002/10/12", 17.1, 18.5, 15.7
"2002/10/13", 17.2, 18.4, 16.1
"2002/10/14", 17.3, 18.8, 15.8
"2002/10/15", 17.9, 18.9, 16.9
"2002/10/16", 18.0, 19.2, 16.9
"2002/10/17", 17.5, 18.7, 16.2
"2002/10/18", 17.6, 18.1, 17.1
"2002/10/19", 17.8, 18.7, 17.2
"2002/10/20", 17.6, 18.1, 17.0
"2002/10/21", 16.3, 17.0, 15.5
"2002/10/22", 16.0, 17.3, 14.8
"2002/10/23", 15.8, 16.3, 15.5
"2002/10/24", 15.2, 15.5, 14.9
"2002/10/25", 15.6, 16.9, 14.6
"2002/10/26", 15.1, 15.7, 14.8
"2002/10/27", 15.2, 16.5, 14.1
"2002/10/28", 14.6, 15.6, 13.6
"2002/10/29", 13.5, 14.6, 12.4
"2002/10/30", 12.8, 14.0, 11.7
"2002/10/31", 12.3, 13.2, 11.1
"2002/11/01", 12.8, 13.0, 12.3
"2002/11/02", 12.0, 12.7, 11.3
"2002/11/03", 11.5, 12.6, 10.3
"2002/11/04", 11.2, 12.3, 10.1
"2002/11/05", 10.5, 11.5,  9.4
"2002/11/06", 10.0, 11.0,  9.0
"2002/11/07",  9.3,  9.9,  8.6
"2002/11/08",  9.4, 10.3,  8.6
"2002/11/09",  9.7, 10.5,  8.9
"2002/11/10",  8.8, 10.1,  7.6
"2002/11/11",  9.3, 10.5,  8.1
"2002/11/12", 10.1, 11.2,  8.9
"2002/11/13", 10.2, 11.3,  9.0
"2002/11/14",  9.5, 10.5,  8.4
"2002/11/15",  9.4, 10.2,  8.8
"2002/11/16"," * "," * "," * "
"2002/11/17"," * "," * "," * "
"2002/11/18"," * "," * "," * "
"2002/11/19",  9.4, 10.0,  8.4
"2002/11/20",  9.6,  9.9,  9.2
"2002/11/21",  9.8, 10.6,  9.1
"2002/11/22",  9.0,  9.8,  8.6
"2002/11/23",  8.6,  8.9,  8.2
"2002/11/24",  9.3,  9.9,  8.8
"2002/11/25",  9.7, 10.3,  9.2
"2002/11/26", 10.0, 10.8,  9.6
"2002/11/27",  8.8,  9.6,  7.9
"2002/11/28",  7.8,  8.6,  7.0
"2002/11/29",  6.8,  7.8,  5.7
"2002/11/30",  6.9,  7.9,  6.0
"2002/12/01",  7.4,  7.6,  7.2
"2002/12/02",  8.0,  9.0,  7.1
"2002/12/03",  7.8,  8.6,  6.8
"2002/12/04",  8.0,  8.3,  7.6
"2002/12/05",  8.4,  9.4,  7.2
"2002/12/06",  8.8,  9.5,  8.3
"2002/12/07",  7.5,  8.3,  6.7
"2002/12/08",  6.6,  6.8,  6.3
"2002/12/09",  5.0,  6.3,  4.5
"2002/12/10",  4.7,  5.5,  4.3
"2002/12/11",  4.2,  5.3,  3.3
"2002/12/12",  3.6,  4.7,  2.7
"2002/12/13",  3.4,  4.7,  2.4
"2002/12/14",  3.2,  4.3,  2.3
"2002/12/15",  2.8,  4.0,  1.9
"2002/12/16",  3.1,  4.5,  1.9
"2002/12/17",  5.5,  6.3,  4.5
"2002/12/18",  4.4,  5.2,  3.9
"2002/12/19",  4.2,  5.0,  3.5
"2002/12/20",  4.8,  5.5,  4.2
"2002/12/21",  4.0,  4.3,  3.9
"2002/12/22",  4.5,  5.1,  4.0
"2002/12/23",  4.5,  5.3,  3.8
"2002/12/24",  4.3,  4.6,  4.0
"2002/12/25",  4.1,  5.0,  3.2
"2002/12/26",  3.7,  4.4,  3.1
"2002/12/27",  2.6,  3.4,  1.9
"2002/12/28",  2.0,  2.9,  1.4
"2002/12/29",  1.9,  3.0,  0.9
"2002/12/30",  1.5,  2.6,  0.7
"2002/12/31",  1.7,  2.8,  0.6
